This is the latest recevied weather packets stored in our database for station/object DO1SN-13. If no packets are shown the sender has not sent any weather packets the latest 10 day(s).
| Time | Temp. | Humidity | Pressure | Rain* | Wind** | Luminosity | Snow |
|---|---|---|---|---|---|---|---|
| 1787770172 | 25.56° C | - | 1018.7 hPa | 0 mm | - | - | - |
| 1787769808 | 25.56° C | - | 1018.6 hPa | 0 mm | - | - | - |
| 1787769443 | 25° C | - | 1018.7 hPa | 0 mm | - | - | - |
| 1787769079 | 25° C | - | 1018.5 hPa | 0 mm | - | - | - |
| 1787768714 | 25.56° C | - | 1018.6 hPa | 0 mm | - | - | - |
| 1787768350 | 25.56° C | - | 1018.6 hPa | 0 mm | - | - | - |
| 1787767986 | 25.56° C | - | 1018.5 hPa | 0 mm | - | - | - |
| 1787767622 | 26.11° C | - | 1018.5 hPa | 0 mm | - | - | - |
| 1787767257 | 26.11° C | - | 1018.6 hPa | 0 mm | - | - | - |
| 1787766892 | 26.11° C | - | 1018.6 hPa | 0 mm | - | - | - |
| 1787766528 | 26.11° C | - | 1018.6 hPa | 0 mm | - | - | - |
| 1787766164 | 26.11° C | - | 1018.6 hPa | 0 mm | - | - | - |
| 1787765800 | 26.67° C | - | 1018.6 hPa | 0 mm | - | - | - |
| 1787765436 | 27.22° C | - | 1018.5 hPa | 0 mm | - | - | - |
| 1787765071 | 28.33° C | - | 1018.5 hPa | 0 mm | - | - | - |
| 1787764707 | 28.33° C | - | 1018.4 hPa | 0 mm | - | - | - |
| 1787764343 | 29.44° C | - | 1018.4 hPa | 0 mm | - | - | - |
| 1787763978 | 29.44° C | - | 1018.6 hPa | 0 mm | - | - | - |
| 1787763614 | 30° C | - | 1018.5 hPa | 0 mm | - | - | - |
| 1787763249 | 29.44° C | - | 1018.6 hPa | 0 mm | - | - | - |
| 1787762885 | 30° C | - | 1018.5 hPa | 0 mm | - | - | - |
| 1787762521 | 30.56° C | - | 1018.5 hPa | 0 mm | - | - | - |
| 1787762156 | 31.11° C | - | 1018.3 hPa | 0 mm | - | - | - |
| 1787761792 | 31.67° C | - | 1018.2 hPa | 0 mm | - | - | - |
| 1787761428 | 31.67° C | - | 1018.3 hPa | 0 mm | - | - | - |
* Rain latest hour (hover to see other rain measurements)
** Current wind speed in m/s (hover to see current wind gust speed)